Temp
61 61 60 59 60 59 59 59 59 60 61 61 61 61 62 61 61 60 60 59 59 59
61 60 59 59 59 59 60 60 59 58 59 59 60 60 60 60 60 60 60 59 59 60
62 61 61 59 59 59 59 60 59 59 58 59 59 59 59 59 60 59 59 59 58 57
61 62 62 60 59 60 59 59 59 59 58 57 58 58 58 58 58 59 58 58 58 57
62 61 61 60 61 60 59 59 59 59 58 58 57 57 58 57 58 58 57 57 57 56
60 60 60 60 60 60 60 59 59 58 58 57 57 57 57 58 58 57 59 58 57 56
54 55 55 55 55 56 55 53 52 51 51 51 51 54 56 57 57 57 57 57 57 57
49 49 49 48 48 47 46 47 47 46 45 45 45 44 48 54 56 55 48 46 45 42
46 45 43 43 42 41 41 41 41 40 41 41 41 39 40 46 46 46 44 41 41 41
41 41 41 40 39 38 37 37 37 38 38 37 37 37 38 38 39 38 38 39 39 39
40 38 38 38 36 35 35 35 35 36 37 36 36 36 36 36 36 34 34 34 36 37
36 35 35 34 33 34 33 33 33 34 35 34 34 35 35 35 33 32 32 33 34 35
35 34 32 32 32 32 32 32 32 31 32 34 33 34 34 34 32 30 31 32 32 33
33 33 33 33 32 32 31 30 30 30 30 31 32 32 33 33 32 30 30 30 30 32
MSLP
1002.62 1003.27 1003.89 1004.92 1005.73 1006.52 1006.84 1006.94 1007.40 1007.89 1008.28 1008.61 1008.87 1009.30 1009.59 1009.75 1010.19 1010.41 1010.94 1011.66 1012.33 1012.92
1002.10 1002.64 1003.83 1004.59 1005.30 1006.09 1006.41 1006.89 1007.20 1007.75 1008.18 1008.45 1008.71 1008.91 1008.93 1008.85 1009.18 1009.95 1010.34 1011.19 1012.10 1012.88
1001.75 1002.15 1003.33 1004.24 1005.20 1005.83 1006.22 1006.91 1007.25 1007.72 1008.11 1008.40 1008.47 1008.60 1008.67 1008.54 1008.75 1009.21 1010.03 1010.90 1011.99 1012.64
1002.02 1002.47 1003.18 1004.30 1005.09 1005.47 1006.16 1006.85 1007.26 1007.59 1007.86 1007.99 1008.17 1008.32 1008.36 1008.35 1008.69 1009.20 1009.84 1010.69 1011.62 1012.39
1002.08 1002.87 1003.61 1004.33 1004.90 1005.45 1006.27 1006.82 1007.19 1007.54 1007.76 1007.89 1008.12 1008.20 1008.21 1008.40 1008.73 1009.04 1009.78 1010.28 1011.46 1012.11
1002.69 1003.43 1004.07 1004.35 1005.06 1005.72 1006.35 1006.99 1007.30 1007.56 1007.76 1007.93 1008.14 1008.32 1008.33 1008.31 1008.69 1009.18 1009.65 1010.33 1011.24 1012.05
1003.30 1004.30 1004.83 1005.19 1005.95 1006.54 1007.07 1007.65 1008.02 1008.28 1008.41 1008.43 1008.51 1008.48 1008.50 1008.55 1008.76 1009.15 1009.88 1010.44 1011.38 1012.12
1004.42 1004.99 1005.61 1006.06 1007.02 1007.69 1008.23 1008.86 1009.12 1009.26 1009.46 1009.56 1009.51 1009.57 1009.21 1008.88 1009.27 1009.80 1010.88 1011.76 1012.50 1013.09
1005.76 1006.18 1006.71 1007.06 1007.93 1008.47 1009.42 1009.99 1010.18 1010.48 1010.56 1010.49 1010.55 1010.37 1009.88 1009.59 1010.27 1010.97 1011.71 1012.51 1013.39 1013.87
1007.56 1007.85 1008.39 1008.58 1008.94 1009.36 1010.33 1011.00 1011.32 1011.43 1011.52 1011.75 1011.82 1011.43 1011.23 1011.05 1011.67 1012.30 1012.94 1013.30 1013.95 1014.35
1009.36 1009.65 1009.94 1010.18 1010.63 1010.86 1011.29 1011.87 1012.30 1012.51 1012.67 1012.73 1013.10 1013.00 1012.48 1012.43 1013.08 1013.71 1014.39 1014.76 1015.01 1015.16
1011.18 1011.51 1011.63 1011.62 1011.96 1012.75 1012.64 1013.04 1013.36 1013.47 1013.76 1013.92 1014.16 1014.21 1014.00 1013.52 1014.25 1014.81 1015.44 1015.89 1015.94 1015.92
1012.65 1012.91 1012.20 1013.39 1013.65 1013.84 1014.01 1014.21 1014.79 1014.49 1014.88 1015.19 1015.23 1015.40 1015.18 1015.06 1015.11 1015.85 1016.52 1016.89 1017.21 1017.25
1014.02 1013.86 1014.00 1014.07 1015.12 1014.95 1015.29 1015.34 1015.62 1015.96 1016.23 1016.20 1016.56 1016.58 1016.38 1016.43 1016.29 1016.89 1017.32 1018.13 1018.66 1018.60
Wind_Speed
12 8 8 9 8 7 6 6 6 5 6 7 8 9 11 10 10 10 11 13 8 5
12 12 9 9 9 6 5 4 6 4 5 6 7 8 9 9 11 12 13 12 9 8
12 12 11 10 9 8 6 7 7 7 7 8 7 8 8 8 10 12 10 10 8 5
9 10 11 9 8 8 8 7 8 8 6 5 5 5 6 5 8 13 10 10 9 7
11 9 9 8 8 8 8 7 7 6 6 5 4 4 6 8 7 12 11 11 9 7
9 7 6 8 8 7 7 5 5 5 5 5 5 4 4 6 10 8 11 11 9 8
11 10 8 10 10 9 9 8 7 7 6 5 5 4 3 6 7 8 7 8 7 7
10 10 10 12 10 10 11 9 8 8 7 6 6 4 4 4 6 8 11 11 10 9
10 11 10 12 11 12 11 10 10 9 8 8 6 8 9 10 11 11 11 11 10 10
13 12 10 11 13 13 12 10 10 10 10 11 10 17 17 17 11 11 10 9 8 8
15 14 13 13 13 13 11 11 9 10 10 11 11 17 19 21 14 13 12 10 8 5
12 14 13 15 14 11 12 12 11 11 11 11 11 16 16 16 13 14 14 11 10 9
12 11 15 12 12 11 12 12 10 14 13 15 11 15 16 13 10 13 10 11 12 19
13 12 11 12 9 11 11 12 13 14 13 14 13 12 17 16 10 9 10 9 8 9
Wind_Direction
156 153 146 157 162 183 184 165 152 163 181 195 193 198 200 198 190 186 174 167 167 161
155 144 152 155 159 171 161 154 150 171 207 208 209 205 212 205 177 181 168 168 163 184
158 148 154 147 159 163 139 154 156 183 199 211 201 202 203 183 168 165 165 162 151 141
141 141 142 150 157 153 151 164 174 191 181 172 183 185 185 175 162 178 158 157 156 139
120 128 143 146 141 141 164 170 174 172 177 170 168 174 181 184 175 165 171 153 147 147
101 111 113 118 125 134 142 146 158 162 174 171 164 165 161 165 175 158 174 164 159 158
91 93 86 76 72 72 80 82 74 64 63 64 69 81 158 150 139 146 146 153 158 168
88 86 86 84 79 73 66 68 67 77 62 54 55 30 21 123 129 108 91 85 82 69
64 71 75 84 84 79 69 63 61 53 51 48 46 31 43 94 94 91 103 107 101 96
49 57 58 78 82 79 76 66 58 58 62 56 51 64 66 74 79 81 78 85 97 97
49 51 55 61 64 71 74 72 66 59 63 70 61 65 76 81 79 76 67 62 61 90
60 56 53 57 63 54 67 64 63 59 58 63 64 70 74 87 81 78 72 62 57 70
58 65 73 61 60 68 65 67 57 62 53 55 62 69 76 79 89 85 76 69 67 72
47 52 64 76 61 71 71 76 69 64 56 58 49 59 70 81 85 89 86 74 64 69